Location: Capelle
(50.3413°N, 1.9974°E)
Time: 17:39:36
(UTC+00:00)

Cosmos 1603 - Visible Passes

Search period start: 11 April 2026 00:00
Search period end: 21 April 2026 00:00
Orbit: 829 x 859 km, 71.0° (Epoch: 11 April)

Date Brightness Start Highest point End Pass type
(mag) Time Alt. Az. Time Alt. Az. Time Alt. Az.
11 Apr 3.8 01:02:40 69° NNW 01:02:40 69° NNW 01:07:58 10° NNE visible
11 Apr 5.6 02:44:30 14° WNW 02:47:25 20° NW 02:51:31 10° N visible
11 Apr 5.7 23:06:32 17° ENE 23:06:32 17° ENE 23:08:31 10° NE visible
12 Apr 3.8 00:48:22 70° NNW 00:48:22 70° NNW 00:53:35 10° NNE visible
12 Apr 5.6 02:30:12 15° WNW 02:32:59 20° NW 02:37:09 10° N visible
12 Apr 5.7 22:52:11 16° ENE 22:52:11 16° ENE 22:54:04 10° NE visible
13 Apr 3.8 00:34:02 70° N 00:34:02 70° N 00:39:12 10° NNE visible
13 Apr 5.6 02:15:51 15° WNW 02:18:33 21° NW 02:22:47 10° NNE visible
13 Apr 5.7 22:37:49 16° ENE 22:37:49 16° ENE 22:39:36 10° NE visible
14 Apr 3.8 00:19:39 71° N 00:19:39 71° N 00:24:49 10° NNE visible
14 Apr 5.6 02:01:29 16° WNW 02:04:07 21° NW 02:08:24 10° NNE visible
14 Apr 5.7 22:23:25 16° ENE 22:23:25 16° ENE 22:25:09 10° ENE visible
15 Apr 3.8 00:05:15 72° N 00:05:15 72° N 00:10:25 10° NNE visible
15 Apr 5.6 01:47:05 16° WNW 01:49:42 22° NW 01:54:02 10° NNE visible
15 Apr 5.6 22:09:00 15° ENE 22:09:00 15° ENE 22:10:41 10° ENE visible
15 Apr 3.8 23:50:49 74° N 23:50:49 74° N 23:56:02 10° NNE visible
16 Apr 5.6 01:32:38 16° WNW 01:35:17 22° NW 01:39:40 10° NNE visible
16 Apr 5.6 21:54:31 15° ENE 21:54:31 15° ENE 21:56:13 10° ENE visible
16 Apr 3.7 23:36:20 77° NNE 23:36:20 77° NNE 23:41:38 10° NNE visible
17 Apr 5.6 01:18:09 16° WNW 01:20:51 23° NW 01:25:17 10° NNE visible
17 Apr 5.6 21:39:59 15° ENE 21:39:59 15° ENE 21:41:44 10° ENE visible
17 Apr 3.6 23:21:48 81° NNE 23:21:48 81° NNE 23:27:15 10° NNE visible
18 Apr 5.6 01:03:37 16° WNW 01:06:25 23° NW 01:10:55 10° NNE visible
18 Apr 5.5 21:25:25 15° E 21:25:25 15° E 21:27:15 10° ENE visible
18 Apr 3.6 23:07:13 86° ENE 23:07:13 86° ENE 23:12:52 10° NNE visible
19 Apr 5.6 00:49:02 16° W 00:51:59 24° NW 00:56:33 10° NNE visible
19 Apr 5.5 21:10:45 15° E 21:10:45 15° E 21:12:45 10° ENE visible
19 Apr 3.5 22:52:34 83° SSE 22:52:44 85° ESE 22:58:28 10° NNE visible
20 Apr 5.6 00:34:22 15° W 00:37:35 24° NW 00:42:11 10° NNE visible
20 Apr 6.6 02:23:35 10° NNW 02:23:58 10° NNW 02:24:20 10° N visible
20 Apr 6.7 04:10:26 10° N 04:11:05 10° NNE 04:11:45 10° NNE visible
20 Apr 5.4 20:56:01 15° E 20:56:01 15° E 20:58:15 10° ENE visible
20 Apr 3.5 22:37:49 73° S 22:38:21 83° ESE 22:44:04 10° NNE visible
